GLO1173 SBCT-SBGR

Flight info

Callsign GLO1173
Flight time 0h 53m
Altitude 35000
Route XONUG UZ121 BUXUK
Aircraft B38M/M-SDE1FGHILORVWXY/HB1

Departure

Time 2026-05-08 17:02
Airport Curitiba-Afonso Pena International Airport (SBCT)

Arrival

Time 2026-05-08 17:55
Airport São Paulo/Guarulhos–Governor André Franco Montoro International Airport (SBGR)
Time Latitude Longitude Altitude Speed Heading
2026-05-08 16:42 -25.53783 -49.16980 2995 ft 0 kts 224°
2026-05-08 16:56 -25.53781 -49.16977 2995 ft 2 kts 224°
2026-05-08 16:56 -25.53770 -49.16966 2995 ft 2 kts 224°
2026-05-08 16:56 -25.53759 -49.16954 2995 ft 2 kts 224°
2026-05-08 16:57 -25.53748 -49.16943 2995 ft 2 kts 230°
2026-05-08 16:57 -25.53744 -49.16929 2995 ft 2 kts 267°
2026-05-08 16:57 -25.53747 -49.16911 2995 ft 2 kts 304°
2026-05-08 16:57 -25.53752 -49.16905 2995 ft 1 kts 319°
2026-05-08 16:58 -25.53755 -49.16902 2995 ft 0 kts 315°
2026-05-08 16:59 -25.53738 -49.16921 2995 ft 9 kts 314°
2026-05-08 16:59 -25.53674 -49.16991 2995 ft 8 kts 333°
2026-05-08 16:59 -25.53629 -49.16948 2995 ft 11 kts 76°
2026-05-08 17:00 -25.53625 -49.16897 2995 ft 0 kts 87°
2026-05-08 17:00 -25.53623 -49.16871 2995 ft 8 kts 87°
2026-05-08 17:01 -25.53619 -49.16770 2995 ft 15 kts 89°
2026-05-08 17:01 -25.53589 -49.16740 2995 ft 6 kts 319°
2026-05-08 17:01 -25.53541 -49.16796 2995 ft 24 kts 313°
2026-05-08 17:01 -25.53266 -49.17104 2995 ft 88 kts 315°
2026-05-08 17:02 -25.52693 -49.17745 2996 ft 142 kts 312°
2026-05-08 17:02 -25.51919 -49.18595 3276 ft 163 kts 311°
2026-05-08 17:02 -25.51228 -49.19699 3622 ft 192 kts 292°
2026-05-08 17:02 -25.50726 -49.21099 4232 ft 203 kts 291°
2026-05-08 17:03 -25.50093 -49.22573 4701 ft 222 kts 297°
2026-05-08 17:03 -25.49292 -49.24133 5002 ft 243 kts 300°
2026-05-08 17:03 -25.48254 -49.25653 5550 ft 261 kts 314°
2026-05-08 17:03 -25.46921 -49.26771 6137 ft 270 kts 330°
2026-05-08 17:04 -25.45095 -49.27468 6954 ft 275 kts 350°
2026-05-08 17:04 -25.43670 -49.27522 7491 ft 279 kts
2026-05-08 17:04 -25.40310 -49.26211 8859 ft 287 kts 25°
2026-05-08 17:05 -25.38581 -49.25201 9604 ft 290 kts 26°
2026-05-08 17:05 -25.36519 -49.24008 10480 ft 293 kts 25°
2026-05-08 17:05 -25.34448 -49.22823 11379 ft 297 kts 27°
2026-05-08 17:05 -25.32731 -49.21527 12125 ft 302 kts 37°
2026-05-08 17:06 -25.31160 -49.19986 12909 ft 305 kts 41°
2026-05-08 17:06 -25.29623 -49.18327 13627 ft 310 kts 41°
2026-05-08 17:06 -25.28090 -49.16639 14310 ft 314 kts 41°
2026-05-08 17:06 -25.26543 -49.14939 14996 ft 317 kts 41°
2026-05-08 17:07 -25.24971 -49.13217 15671 ft 321 kts 40°
2026-05-08 17:07 -25.23381 -49.11479 16318 ft 326 kts 40°
2026-05-08 17:07 -25.21769 -49.09720 16964 ft 329 kts 40°
2026-05-08 17:07 -25.20138 -49.07941 17594 ft 333 kts 40°
2026-05-08 17:08 -25.18485 -49.06139 18176 ft 337 kts 39°
2026-05-08 17:08 -25.16815 -49.04319 18754 ft 341 kts 39°
2026-05-08 17:08 -25.15124 -49.02477 19332 ft 344 kts 39°
2026-05-08 17:08 -25.13419 -49.00620 19907 ft 348 kts 39°
2026-05-08 17:09 -25.11691 -48.98739 20437 ft 352 kts 39°
2026-05-08 17:09 -25.09947 -48.96841 21025 ft 354 kts 39°
2026-05-08 17:09 -25.08200 -48.94939 21569 ft 356 kts 39°
2026-05-08 17:09 -25.06437 -48.93021 22112 ft 358 kts 39°
2026-05-08 17:10 -25.04663 -48.91093 22637 ft 360 kts 39°
2026-05-08 17:10 -25.02879 -48.89155 23151 ft 362 kts 39°
2026-05-08 17:10 -25.01087 -48.87208 23643 ft 364 kts 39°
2026-05-08 17:10 -24.99285 -48.85251 24129 ft 366 kts 39°
2026-05-08 17:11 -24.97473 -48.83285 24592 ft 369 kts 39°
2026-05-08 17:11 -24.95645 -48.81302 25053 ft 371 kts 39°
2026-05-08 17:11 -24.93807 -48.79310 25465 ft 374 kts 39°
2026-05-08 17:11 -24.91954 -48.77302 25881 ft 377 kts 39°
2026-05-08 17:12 -24.90087 -48.75280 26282 ft 379 kts 39°
2026-05-08 17:12 -24.88194 -48.73230 26674 ft 382 kts 39°
2026-05-08 17:12 -24.86300 -48.71180 27058 ft 385 kts 39°
2026-05-08 17:12 -24.84390 -48.69114 27434 ft 388 kts 39°
2026-05-08 17:13 -24.82463 -48.67029 27809 ft 390 kts 39°
2026-05-08 17:13 -24.80527 -48.64936 28163 ft 393 kts 39°
2026-05-08 17:13 -24.78574 -48.62826 28531 ft 396 kts 39°
2026-05-08 17:13 -24.76812 -48.60924 28830 ft 398 kts 39°
2026-05-08 17:14 -24.74834 -48.58788 29179 ft 401 kts 39°
2026-05-08 17:14 -24.72849 -48.56646 29502 ft 403 kts 39°
2026-05-08 17:14 -24.70842 -48.54481 29834 ft 406 kts 39°
2026-05-08 17:14 -24.68828 -48.52311 30153 ft 408 kts 39°
2026-05-08 17:15 -24.66800 -48.50125 30457 ft 411 kts 39°
2026-05-08 17:15 -24.64764 -48.47932 30760 ft 413 kts 39°
2026-05-08 17:15 -24.62709 -48.45719 31057 ft 415 kts 39°
2026-05-08 17:15 -24.60650 -48.43504 31345 ft 418 kts 39°
2026-05-08 17:16 -24.58573 -48.41270 31633 ft 420 kts 39°
2026-05-08 17:16 -24.56486 -48.39026 31919 ft 422 kts 39°
2026-05-08 17:16 -24.54387 -48.36770 32195 ft 425 kts 39°
2026-05-08 17:16 -24.52273 -48.34500 32472 ft 427 kts 39°
2026-05-08 17:17 -24.50149 -48.32220 32734 ft 429 kts 39°
2026-05-08 17:17 -24.48017 -48.29931 32980 ft 431 kts 39°
2026-05-08 17:17 -24.45872 -48.27630 33227 ft 433 kts 39°
2026-05-08 17:17 -24.43723 -48.25326 33465 ft 435 kts 39°
2026-05-08 17:18 -24.41561 -48.23008 33708 ft 437 kts 39°
2026-05-08 17:18 -24.39371 -48.20704 33933 ft 437 kts 36°
2026-05-08 17:18 -24.37033 -48.18598 34168 ft 436 kts 32°
2026-05-08 17:18 -24.34608 -48.16622 34415 ft 436 kts 30°
2026-05-08 17:19 -24.32250 -48.14793 34625 ft 436 kts 28°
2026-05-08 17:19 -24.29689 -48.13032 34854 ft 435 kts 24°
2026-05-08 17:19 -24.27062 -48.11411 35024 ft 436 kts 23°
2026-05-08 17:19 -24.24392 -48.09813 35027 ft 441 kts 22°
2026-05-08 17:20 -24.18949 -48.06583 35014 ft 450 kts 22°
2026-05-08 17:20 -24.13444 -48.03326 35001 ft 450 kts 22°
2026-05-08 17:21 -24.07960 -48.00089 34993 ft 448 kts 22°
2026-05-08 17:21 -24.02485 -47.96864 34996 ft 448 kts 22°
2026-05-08 17:22 -23.96979 -47.93628 34999 ft 450 kts 22°
2026-05-08 17:22 -23.91447 -47.90382 34468 ft 461 kts 22°
2026-05-08 17:23 -23.88611 -47.88720 33554 ft 461 kts 23°
2026-05-08 17:23 -23.85847 -47.87093 32811 ft 447 kts 23°
2026-05-08 17:23 -23.83160 -47.85512 32095 ft 438 kts 23°
2026-05-08 17:23 -23.80531 -47.83792 31410 ft 446 kts 28°
2026-05-08 17:24 -23.77987 -47.81820 30683 ft 458 kts 32°
2026-05-08 17:24 -23.75494 -47.79647 29845 ft 462 kts 35°
2026-05-08 17:24 -23.73073 -47.77385 29090 ft 458 kts 37°
2026-05-08 17:24 -23.70718 -47.75098 28530 ft 450 kts 37°
2026-05-08 17:25 -23.68432 -47.72829 27896 ft 444 kts 38°
2026-05-08 17:25 -23.66192 -47.70570 27283 ft 437 kts 38°
2026-05-08 17:25 -23.63993 -47.68326 26997 ft 432 kts 39°
2026-05-08 17:25 -23.61802 -47.66078 26996 ft 435 kts 39°
2026-05-08 17:26 -23.59596 -47.63801 27014 ft 439 kts 39°
2026-05-08 17:26 -23.57384 -47.61505 27167 ft 442 kts 39°
2026-05-08 17:26 -23.55156 -47.59185 27327 ft 443 kts 39°
2026-05-08 17:26 -23.52929 -47.56860 27385 ft 445 kts 39°
2026-05-08 17:27 -23.50690 -47.54521 27327 ft 449 kts 39°
2026-05-08 17:27 -23.48436 -47.52164 26675 ft 450 kts 40°
2026-05-08 17:27 -23.46223 -47.49844 26179 ft 439 kts 40°
2026-05-08 17:27 -23.44035 -47.47551 25223 ft 440 kts 40°
2026-05-08 17:28 -23.41832 -47.45246 24191 ft 442 kts 40°
2026-05-08 17:28 -23.39632 -47.42943 23359 ft 438 kts 40°
2026-05-08 17:28 -23.37468 -47.40677 22707 ft 429 kts 40°
2026-05-08 17:28 -23.35353 -47.38468 22301 ft 415 kts 40°
2026-05-08 17:29 -23.33315 -47.36339 22046 ft 403 kts 40°
2026-05-08 17:29 -23.31305 -47.34242 21798 ft 400 kts 39°
2026-05-08 17:29 -23.29298 -47.32152 21552 ft 401 kts 40°
2026-05-08 17:29 -23.27281 -47.30049 21305 ft 402 kts 40°
2026-05-08 17:30 -23.25272 -47.27953 21054 ft 399 kts 40°
2026-05-08 17:30 -23.23280 -47.25874 20802 ft 397 kts 40°
2026-05-08 17:30 -23.21293 -47.23802 20552 ft 396 kts 40°
2026-05-08 17:30 -23.19317 -47.21742 20302 ft 394 kts 40°
2026-05-08 17:31 -23.17349 -47.19690 20051 ft 392 kts 40°
2026-05-08 17:31 -23.15388 -47.17646 19802 ft 391 kts 40°
2026-05-08 17:31 -23.13490 -47.15537 19552 ft 391 kts 43°
2026-05-08 17:31 -23.11646 -47.13384 19302 ft 389 kts 44°
2026-05-08 17:32 -23.09817 -47.11229 19056 ft 388 kts 44°
2026-05-08 17:32 -23.08008 -47.09096 18989 ft 384 kts 44°
2026-05-08 17:32 -23.06197 -47.06962 18962 ft 385 kts 44°
2026-05-08 17:32 -23.04409 -47.04854 18468 ft 378 kts 44°
2026-05-08 17:33 -23.02636 -47.02767 17699 ft 378 kts 44°
2026-05-08 17:33 -23.00868 -47.00687 17091 ft 373 kts 44°
2026-05-08 17:33 -22.99133 -46.98645 16538 ft 366 kts 45°
2026-05-08 17:33 -22.97429 -46.96641 16060 ft 358 kts 45°
2026-05-08 17:34 -22.95769 -46.94691 15592 ft 351 kts 46°
2026-05-08 17:34 -22.94113 -46.92752 14761 ft 353 kts 46°
2026-05-08 17:34 -22.92458 -46.90823 14214 ft 347 kts 47°
2026-05-08 17:34 -22.90846 -46.88953 13992 ft 332 kts 47°
2026-05-08 17:35 -22.89315 -46.87177 13986 ft 315 kts 48°
2026-05-08 17:35 -22.87823 -46.85442 13996 ft 315 kts 50°
2026-05-08 17:35 -22.86509 -46.83548 13994 ft 316 kts 58°
2026-05-08 17:35 -22.85386 -46.81501 13994 ft 316 kts 62°
2026-05-08 17:36 -22.84329 -46.79418 13994 ft 315 kts 62°
2026-05-08 17:36 -22.83277 -46.77329 13996 ft 318 kts 62°
2026-05-08 17:36 -22.82215 -46.75237 13994 ft 316 kts 62°
2026-05-08 17:36 -22.81249 -46.73103 13996 ft 315 kts 69°
2026-05-08 17:37 -22.80515 -46.70862 14001 ft 316 kts 73°
2026-05-08 17:37 -22.79876 -46.68598 13998 ft 315 kts 75°
2026-05-08 17:37 -22.79255 -46.66314 14001 ft 317 kts 75°
2026-05-08 17:37 -22.78650 -46.64032 13997 ft 315 kts 78°
2026-05-08 17:38 -22.78290 -46.61692 14001 ft 315 kts 85°
2026-05-08 17:38 -22.78121 -46.59336 14001 ft 314 kts 88°
2026-05-08 17:38 -22.78009 -46.56978 14003 ft 315 kts 88°
2026-05-08 17:38 -22.77903 -46.54616 14001 ft 313 kts 88°
2026-05-08 17:39 -22.77877 -46.52256 14004 ft 314 kts 95°
2026-05-08 17:39 -22.78127 -46.49918 14010 ft 313 kts 100°
2026-05-08 17:39 -22.78492 -46.47592 14009 ft 314 kts 101°
2026-05-08 17:39 -22.78877 -46.45267 13999 ft 314 kts 101°
2026-05-08 17:40 -22.79264 -46.42938 13982 ft 313 kts 103°
2026-05-08 17:40 -22.79869 -46.40678 13988 ft 312 kts 111°
2026-05-08 17:40 -22.80686 -46.38509 13990 ft 312 kts 115°
2026-05-08 17:40 -22.81575 -46.36365 13990 ft 312 kts 115°
2026-05-08 17:41 -22.82691 -46.34373 13964 ft 310 kts 135°
2026-05-08 17:41 -22.84465 -46.33090 13963 ft 307 kts 161°
2026-05-08 17:41 -22.86563 -46.32802 13864 ft 311 kts 187°
2026-05-08 17:41 -22.88629 -46.33476 13625 ft 310 kts 205°
2026-05-08 17:42 -22.90477 -46.34624 13381 ft 305 kts 212°
2026-05-08 17:42 -22.92238 -46.35877 13130 ft 302 kts 213°
2026-05-08 17:42 -22.93994 -46.37110 12878 ft 301 kts 212°
2026-05-08 17:42 -22.95760 -46.38312 12625 ft 300 kts 212°
2026-05-08 17:43 -22.97536 -46.39499 12374 ft 300 kts 213°
2026-05-08 17:43 -22.99324 -46.40686 12123 ft 301 kts 213°
2026-05-08 17:43 -23.01116 -46.41873 11871 ft 302 kts 213°
2026-05-08 17:43 -23.02917 -46.43068 11620 ft 305 kts 213°
2026-05-08 17:44 -23.04737 -46.44278 11369 ft 308 kts 213°
2026-05-08 17:44 -23.06561 -46.45489 11118 ft 307 kts 213°
2026-05-08 17:44 -23.08372 -46.46689 10864 ft 304 kts 213°
2026-05-08 17:44 -23.10158 -46.47872 10590 ft 297 kts 213°
2026-05-08 17:45 -23.11911 -46.49034 10307 ft 296 kts 213°
2026-05-08 17:45 -23.13686 -46.50214 10035 ft 301 kts 213°
2026-05-08 17:45 -23.15447 -46.51383 9830 ft 291 kts 213°
2026-05-08 17:45 -23.17137 -46.52504 9626 ft 283 kts 213°
2026-05-08 17:46 -23.18812 -46.53617 9244 ft 282 kts 213°
2026-05-08 17:46 -23.20476 -46.54724 8958 ft 278 kts 213°
2026-05-08 17:46 -23.22081 -46.55814 8830 ft 268 kts 215°
2026-05-08 17:46 -23.23647 -46.56936 8588 ft 274 kts 216°
2026-05-08 17:47 -23.25236 -46.58077 8249 ft 273 kts 216°
2026-05-08 17:47 -23.26818 -46.59208 7926 ft 271 kts 215°
2026-05-08 17:47 -23.28387 -46.60325 7663 ft 268 kts 215°
2026-05-08 17:47 -23.29428 -46.61067 7499 ft 270 kts 215°
2026-05-08 17:48 -23.31519 -46.62553 7169 ft 268 kts 215°
2026-05-08 17:48 -23.33072 -46.63654 6917 ft 266 kts 215°
2026-05-08 17:48 -23.34611 -46.64747 6667 ft 265 kts 215°
2026-05-08 17:48 -23.36156 -46.65846 6417 ft 265 kts 216°
2026-05-08 17:49 -23.37700 -46.66943 6166 ft 264 kts 216°
2026-05-08 17:49 -23.39212 -46.68017 6000 ft 250 kts 216°
2026-05-08 17:49 -23.40656 -46.68966 5848 ft 239 kts 208°
2026-05-08 17:49 -23.42197 -46.69596 5575 ft 236 kts 196°
2026-05-08 17:50 -23.43799 -46.69858 5320 ft 232 kts 184°
2026-05-08 17:50 -23.45384 -46.69754 5097 ft 222 kts 171°
2026-05-08 17:50 -23.46814 -46.69285 5013 ft 208 kts 152°
2026-05-08 17:50 -23.47863 -46.68316 4902 ft 193 kts 124°
2026-05-08 17:51 -23.48416 -46.67026 4787 ft 189 kts 101°
2026-05-08 17:51 -23.48450 -46.65602 4460 ft 185 kts 75°
2026-05-08 17:51 -23.48058 -46.64315 4324 ft 177 kts 68°
2026-05-08 17:51 -23.47697 -46.63001 4248 ft 184 kts 71°
2026-05-08 17:52 -23.47358 -46.61666 4115 ft 178 kts 71°
2026-05-08 17:52 -23.47044 -46.60447 4090 ft 155 kts 70°
2026-05-08 17:52 -23.46458 -46.58266 4082 ft 148 kts 70°
2026-05-08 17:53 -23.46168 -46.57193 4074 ft 149 kts 70°
2026-05-08 17:53 -23.45875 -46.56107 3834 ft 147 kts 70°
2026-05-08 17:53 -23.45592 -46.55053 3656 ft 146 kts 70°
2026-05-08 17:53 -23.45301 -46.53961 3447 ft 149 kts 70°
2026-05-08 17:54 -23.45020 -46.52880 3242 ft 149 kts 70°
2026-05-08 17:54 -23.44710 -46.51812 3087 ft 147 kts 66°
2026-05-08 17:54 -23.44411 -46.50746 2894 ft 148 kts 71°
2026-05-08 17:54 -23.44149 -46.49670 2674 ft 146 kts 69°
2026-05-08 17:55 -23.43857 -46.48619 2490 ft 143 kts 69°
2026-05-08 17:55 -23.43584 -46.47634 2452 ft 114 kts 69°
2026-05-08 17:55 -23.43442 -46.47088 2450 ft 40 kts 70°
2026-05-08 17:55 -23.43289 -46.46865 2450 ft 34 kts 44°
2026-05-08 17:56 -23.43163 -46.46729 2450 ft 12 kts 35°
2026-05-08 17:56 -23.43044 -46.46733 2448 ft 22 kts 344°
2026-05-08 17:56 -23.42888 -46.46782 2445 ft 22 kts 344°
2026-05-08 17:56 -23.42771 -46.46847 2442 ft 12 kts 278°
2026-05-08 17:57 -23.42786 -46.46934 2443 ft 11 kts 256°
2026-05-08 17:57 -23.42812 -46.47030 2443 ft 18 kts 253°
2026-05-08 17:57 -23.42859 -46.47202 2444 ft 28 kts 253°
2026-05-08 17:57 -23.42912 -46.47406 2444 ft 26 kts 257°
2026-05-08 17:58 -23.42963 -46.47584 2444 ft 22 kts 251°
2026-05-08 17:58 -23.43006 -46.47734 2444 ft 19 kts 253°
2026-05-08 17:58 -23.42975 -46.47827 2444 ft 12 kts 329°
2026-05-08 17:58 -23.42909 -46.47841 2444 ft 8 kts 358°
2026-05-08 17:59 -23.42860 -46.47854 2444 ft 5 kts 323°
2026-05-08 17:59 -23.42839 -46.47870 2444 ft 2 kts 321°
2026-05-08 17:59 -23.42834 -46.47898 2445 ft 3 kts 272°
2026-05-08 17:59 -23.42834 -46.47921 2445 ft 4 kts 267°
2026-05-08 18:00 -23.42836 -46.47947 2446 ft 2 kts 266°
2026-05-08 18:00 -23.42836 -46.47948 2446 ft 0 kts 266°